This demonstration page uses our WeatherBlox Daily Observations layout. Learn more.

Left ArrowRight Arrow

Hourly Observations for March 9, 2022

Temp ( °F °C ) Dew Point ( °F °C ) Humidity (%) Winds ( mph kmh ) Pressure ( in mb ) Visibility ( mi km ) Precip ( " mm )
12:56 am 00:56 Clear 15 -9.4 11 -11.7 84 84 NW 6 9 30.16 1021 10 16 0.00 0.00
1:56 am 01:56 Clear 16 -8.9 11 -11.7 80 80 NW 6 9 30.17 1022 10 16 0.00 0.00
2:56 am 02:56 Clear 15 -9.4 11 -11.7 84 84 NNW 8 13 30.15 1021 10 16 0.00 0.00
3:56 am 03:56 Clear 14 -10 10 -12.2 84 84 NNW 7 11 30.16 1021 10 16 0.00 0.00
4:56 am 04:56 Clear 14 -10 10 -12.2 84 84 NNW 9 15 30.17 1022 10 16 0.00 0.00
5:56 am 05:56 Cloudy 16 -8.9 12 -11.1 84 84 NE 13 20 30.16 1022 10 16 0.00 0.00
6:56 am 06:56 Cloudy with Light Snow 19 -7.2 15 -9.4 84 84 N 9 15 30.23 1024 3 5 0.00 0.00
7:15 am 07:15 Cloudy with Light Snow 19 -7 16 -9 86 86 N 5 7 30.31 1027 4 6 0.00 0.00
7:52 am 07:52 Cloudy with Light Snow 19 -7 16 -9 86 86 NNE 9 15 30.31 1027 5 8 0.00 0.00
7:56 am 07:56 Cloudy with Light Snow 20 -6.7 17 -8.3 89 89 NNE 12 19 30.24 1024 4 6 0.00 0.00
8:43 am 08:43 Windy with Snow Likely 18 -8 14 -10 86 86 N 20 31 30.35 1028 9 14 0.00 0.00
8:56 am 08:56 Cloudy with Light Snow 18 -7.8 13 -10.6 81 81 N 17 28 30.28 1025 9 14 0.00 0.00
9:09 am 09:09 Cloudy with Light Snow 18 -8 14 -10 86 86 N 14 22 30.36 1028 9 14 0.00 0.00
9:22 am 09:22 Cloudy with Light Snow 18 -8 12 -11 79 79 N 15 24 30.36 1028 9 14 0.00 0.00
9:56 am 09:56 Cloudy with Light Snow 19 -7.2 14 -10 81 81 N 14 22 30.27 1025 9 14 0.00 0.00
10:56 am 10:56 Cloudy with Light Snow 19 -7.2 14 -10 81 81 NNE 15 24 30.28 1025 9 14 0.00 0.00
11:56 am 11:56 Cloudy with Light Snow 21 -6.1 14 -10 74 74 NNE 13 20 30.27 1025 9 14 0.00 0.00
12:56 pm 12:56 Cloudy with Light Snow 21 -6.1 14 -10 74 74 NNE 15 24 30.25 1025 8 13 0.00 0.00
1:46 pm 13:46 Cloudy with Light Snow 19 -7 16 -9 86 86 NNE 15 24 30.29 1026 3 4 0.00 0.00
1:56 pm 13:56 Cloudy with Light Snow 20 -6.7 15 -9.4 81 81 NNE 13 20 30.23 1024 2 3 0.00 0.00
2:26 pm 14:26 Cloudy with Light Snow 19 -7 16 -9 86 86 NE 17 28 30.28 1026 2 3 0.00 0.00
2:39 pm 14:39 Windy with Snow Likely 19 -7 16 -9 86 86 NNE 21 33 30.28 1026 2 2 0.00 0.00
2:47 pm 14:47 Cloudy with Light Snow 19 -7 16 -9 86 86 NNE 18 30 30.28 1026 3 5 0.00 0.00
2:56 pm 14:56 Cloudy with Light Snow 20 -6.7 15 -9.4 81 81 NNE 16 26 30.22 1023 6 10 0.00 0.00
3:56 pm 15:56 Cloudy with Light Snow 19 -7.2 14 -10 81 81 NE 17 28 30.24 1024 3 5 0.00 0.00
4:10 pm 16:10 Cloudy with Light Snow 19 -7 16 -9 86 86 NNE 17 28 30.29 1026 3 4 0.00 0.00
4:21 pm 16:21 Cloudy with Light Snow 19 -7 16 -9 86 86 NNE 17 28 30.29 1026 3 5 0.00 0.00
4:38 pm 16:38 Cloudy with Light Snow 18 -8 16 -9 93 93 NNE 14 22 30.31 1027 2 3 0.00 0.00
4:48 pm 16:48 Cloudy with Light Snow 18 -8 16 -9 93 93 NNE 14 22 30.31 1027 2 3 0.00 0.00
4:56 pm 16:56 Cloudy with Light Snow 18 -7.8 15 -9.4 88 88 NNE 17 28 30.25 1024 1 2 0.00 0.00
5:15 pm 17:15 Cloudy with Light Snow 18 -8 14 -10 86 86 NNE 18 30 30.32 1027 1 2 0.00 0.00
5:23 pm 17:23 Cloudy with Light Snow 18 -8 12 -11 79 79 NNE 18 30 30.32 1027 2 3 0.00 0.00
5:35 pm 17:35 Cloudy with Light Snow 18 -8 12 -11 79 79 NNE 17 28 30.33 1027 3 5 0.00 0.00
5:56 pm 17:56 Windy with Snow Likely 16 -8.9 13 -10.6 88 88 NNE 20 31 30.28 1025 3 4 0.00 0.00
6:39 pm 18:39 Cloudy with Light Snow 16 -9 12 -11 86 86 NE 16 26 30.35 1028 3 5 0.00 0.00
6:56 pm 18:56 Cloudy with Light Snow 16 -8.9 13 -10.6 88 88 NNE 14 22 30.29 1026 4 6 0.00 0.00
7:22 pm 19:22 Cloudy with Light Snow 16 -9 12 -11 86 86 NNE 14 22 30.37 1029 9 14 0.00 0.00
7:46 pm 19:46 Cloudy with Light Snow 16 -9 12 -11 86 86 NNE 15 24 30.39 1029 4 6 0.00 0.00
7:56 pm 19:56 Cloudy with Light Snow 15 -9.4 12 -11.1 88 88 NNE 16 26 30.31 1027 5 8 0.00 0.00
8:08 pm 20:08 Cloudy with Light Snow 16 -9 12 -11 86 86 NNE 15 24 30.38 1029 4 6 0.00 0.00
8:39 pm 20:39 Cloudy with Light Snow 16 -9 12 -11 86 86 NNE 13 20 30.39 1029 7 11 0.00 0.00
8:56 pm 20:56 Cloudy with Light Snow 15 -9.4 12 -11.1 88 88 NNE 13 20 30.32 1027 3 5 0.00 0.00
9:24 pm 21:24 Cloudy with Light Snow 16 -9 12 -11 86 86 NE 10 17 30.40 1030 7 11 0.00 0.00
9:56 pm 21:56 Cloudy with Light Snow 15 -9.4 11 -11.7 84 84 NNE 12 19 30.32 1027 5 8 0.00 0.00
10:11 pm 22:11 Cloudy with Light Snow 16 -9 10 -12 79 79 NNE 12 19 30.40 1030 3 5 0.00 0.00
10:52 pm 22:52 Cloudy with Light Snow 14 -10 10 -12 85 85 NNE 10 17 30.41 1030 7 11 0.00 0.00
10:56 pm 22:56 Cloudy with Light Snow 14 -10 11 -11.7 88 88 NNE 9 15 30.33 1027 6 10 0.00 0.00
11:38 pm 23:38 Cloudy with Light Snow 14 -10 10 -12 85 85 NE 8 13 30.41 1030 3 5 0.00 0.00
11:47 pm 23:47 Cloudy with Light Snow 14 -10 10 -12 85 85 NNE 8 13 30.42 1030 3 4 0.00 0.00
11:56 pm 23:56 Cloudy with Light Snow 14 -10 11 -11.7 88 88 NNE 8 13 30.33 1027 3 4 0.00 0.00

Powered by AerisWeather